Content
SEND FEEDBACK

Daily
Averages
Monthly
Summary
Italy

GENOA, ITALY


Home > Europe > Italy
Elevation: 10 feet     Latitude: 44 25N     Longitude: 008 51E

WEATHER
 
SELECT A DAY
Number of Records: 294,641;   Date Range: 7/1/96 - 10/29/14
 
SHARE

PRINT THIS DATA

[ ← Previous Day ]
WEATHER ALMANAC - JANUARY 31, 2013
[ Next Day → ]
[ °C ]   °F
Weather ElementAverageHighLow
Temperature53 °F57.2 °F (10:20 am)46.4 °F (6:20 am)
Dewpoint46.9 °F51.8 °F (11:50 am)41 °F (7:50 am)
Humidity80 %88 % (2:20 am)63 % (10:20 am)
Barometer30.14 in30.21 in (9:50 am)30.09 in (12:50 am)
Wind Speed5.3 mph12.7 mph (2:20 pm)
Weather ElementAverage
Visibility6.2 mi
Wind DirectionENE (62.8 °)

Weather ElementTotal
Precipitation---
Heating Degree Days13.2 (Base 65)
Growing Degree Days1.8 (Base 50)
Averaged from 46 records on January 31, 2013
WEATHER CONDITIONS BREAKOUT
WIND DIRECTION BREAKOUT
WEATHER BY HOUR - JANUARY 31, 2013
[ °C ]   °F
Local TimeTemperatureDewpointHumidityBarometerVisibilityWind DirectionWind SpeedGust SpeedPrecipitationEventsConditions
12:50 AM53.6 °F48.2 °F82 %30.09 in6.2 miVariable2.3 mphMostly Cloudy
1:20 AM53.6 °F48.2 °F82 %30.09 in6.2 miVariable1.2 mphMostly Cloudy
1:50 AM53.6 °F48.2 °F82 %30.09 in6.2 miNorth (10°)2.3 mphMostly Cloudy
2:20 AM51.8 °F48.2 °F88 %30.09 in6.2 miNNE (30°)3.5 mphMostly Cloudy
2:50 AM51.8 °F46.4 °F82 %30.09 in6.2 miNNE (30°)3.5 mphScattered Clouds
3:20 AM51.8 °F46.4 °F82 %30.09 in6.2 miVariable2.3 mphScattered Clouds
3:50 AM50.0 °F46.4 °F87 %30.12 inVariable2.3 mphClear
4:20 AM50.0 °F44.6 °F82 %30.12 inNNE (20°)4.6 mphClear
4:50 AM50.0 °F44.6 °F82 %30.12 inNorth (10°)4.6 mphClear
5:20 AM50.0 °F44.6 °F82 %30.12 inNNE (20°)4.6 mphClear
6:20 AM46.4 °F42.8 °F87 %30.12 inENE (60°)3.5 mphClear
6:50 AM46.4 °F42.8 °F87 %30.15 inNorth (10°)3.5 mphClear
7:20 AM46.4 °F42.8 °F87 %30.15 inENE (60°)4.6 mphClear
7:50 AM46.4 °F41.0 °F81 %30.15 inNNE (20°)4.6 mphClear
8:20 AM48.2 °F41.0 °F76 %30.18 inNE (40°)4.6 mphClear
8:50 AM50.0 °F41.0 °F71 %30.18 inVariable2.3 mphClear
9:20 AM51.8 °F41.0 °F67 %30.18 inNNE (30°)3.5 mphClear
9:50 AM53.6 °F42.8 °F67 %30.21 inVariable2.3 mphClear
10:20 AM57.2 °F44.6 °F63 %30.21 inCalmClear
10:50 AM55.4 °F48.2 °F77 %30.21 in6.2 miESE (110°)5.8 mphPartly Cloudy
11:20 AM57.2 °F50.0 °F77 %30.21 in6.2 miESE (120°)6.9 mphPartly Cloudy
11:50 AM55.4 °F51.8 °F88 %30.21 in6.2 miESE (120°)5.8 mphScattered Clouds
12:20 PM55.4 °F48.2 °F77 %30.21 in6.2 miSSE (150°)4.6 mphScattered Clouds
12:50 PM57.2 °F50.0 °F77 %30.21 in6.2 miVariable2.3 mphScattered Clouds
1:20 PM57.2 °F50.0 °F77 %30.18 in6.2 miESE (120°)5.8 mphPartly Cloudy
1:50 PM57.2 °F50.0 °F77 %30.18 inESE (120°)11.5 mphClear
2:20 PM57.2 °F48.2 °F72 %30.15 inESE (120°)12.7 mphClear
2:50 PM57.2 °F50.0 °F77 %30.15 inSE (130°)12.7 mphClear
3:20 PM57.2 °F50.0 °F77 %30.15 inSE (140°)8.1 mphClear
3:50 PM55.4 °F50.0 °F82 %30.12 in6.2 miSE (140°)12.7 mphPartly Cloudy
4:20 PM55.4 °F50.0 °F82 %30.12 in6.2 miSE (140°)11.5 mphPartly Cloudy
4:50 PM55.4 °F50.0 °F82 %30.12 in6.2 miSSE (150°)11.5 mphPartly Cloudy
5:20 PM55.4 °F50.0 °F82 %30.12 in6.2 miSSE (160°)9.2 mphScattered Clouds
5:50 PM55.4 °F50.0 °F82 %30.12 in6.2 miSSE (160°)6.9 mphScattered Clouds
6:20 PM55.4 °F50.0 °F82 %30.12 in6.2 miSSE (150°)9.2 mphMostly Cloudy
6:50 PM53.6 °F48.2 °F82 %30.12 in6.2 miSE (140°)8.1 mphMostly Cloudy
7:20 PM53.6 °F48.2 °F82 %30.12 in6.2 miEast (80°)3.5 mphMostly Cloudy
7:50 PM55.4 °F48.2 °F77 %30.12 in6.2 miEast (100°)5.8 mphMostly Cloudy
8:20 PM53.6 °F48.2 °F82 %30.12 in6.2 miVariable2.3 mphMostly Cloudy
8:50 PM55.4 °F48.2 °F77 %30.12 in6.2 miVariable1.2 mphMostly Cloudy
9:20 PM53.6 °F48.2 °F82 %30.12 in6.2 miNNE (30°)4.6 mphScattered Clouds
9:50 PM51.8 °F46.4 °F82 %30.12 in6.2 miNE (50°)3.5 mphScattered Clouds
10:20 PM51.8 °F46.4 °F82 %30.09 in6.2 miNNE (30°)4.6 mphPartly Cloudy
10:50 PM50.0 °F44.6 °F82 %30.09 in6.2 miNNE (30°)4.6 mphPartly Cloudy
11:20 PM50.0 °F44.6 °F82 %30.09 inNNE (30°)4.6 mphClear
11:50 PM48.2 °F44.6 °F87 %30.09 inNNE (30°)3.5 mphClear
Hourly data recorded from LIMJ, located miles away from Genoa, Italy







STORIES FROM OUR PARTNERS